DAL934 KLAX-KJFK

Flight info

Callsign DAL934
Flight time 4h 27m
Altitude 39000
Route ORCKA5 BEALE J146 DVC KD51W OATHE KD54A MCI RBS BVT JOEBU DORET Q29 JHW Q476 WLKES PUCKY1
Aircraft A333/H-SDE3GHIJ2J3J5M1RVWXY/LB2D1

Departure

Time 2026-05-04 16:26
Airport Los Angeles International Airport (KLAX)

Arrival

Time 2026-05-04 20:53
Airport John F. Kennedy International Airport (KJFK)
Time Latitude Longitude Altitude Speed Heading
2026-05-04 16:00 33.94531 -118.40796 96 ft 0 kts 93°
2026-05-04 16:17 33.94529 -118.40844 97 ft 4 kts 75°
2026-05-04 16:18 33.94495 -118.40919 95 ft 4 kts 54°
2026-05-04 16:18 33.94503 -118.40895 95 ft 4 kts 64°
2026-05-04 16:19 33.94535 -118.40885 98 ft 0 kts 353°
2026-05-04 16:20 33.94542 -118.40886 97 ft 3 kts 353°
2026-05-04 16:21 33.94703 -118.40910 98 ft 12 kts 352°
2026-05-04 16:22 33.94838 -118.40828 99 ft 12 kts 77°
2026-05-04 16:22 33.94883 -118.40400 99 ft 20 kts 83°
2026-05-04 16:23 33.94930 -118.39963 97 ft 13 kts 75°
2026-05-04 16:24 33.95011 -118.40246 103 ft 61 kts 263°
2026-05-04 16:25 33.94821 -118.42116 108 ft 157 kts 262°
2026-05-04 16:26 33.94260 -118.47552 2108 ft 188 kts 263°
2026-05-04 16:26 33.93628 -118.53107 3200 ft 247 kts 263°
2026-05-04 16:27 33.93145 -118.57251 4818 ft 253 kts 260°
2026-05-04 16:28 33.89849 -118.61973 7229 ft 272 kts 193°
2026-05-04 16:28 33.85479 -118.58412 9797 ft 294 kts 102°
2026-05-04 16:29 33.89589 -118.48921 11452 ft 363 kts 51°
2026-05-04 16:30 33.94343 -118.41494 13226 ft 384 kts 55°
2026-05-04 16:31 33.97400 -118.36082 14417 ft 397 kts 55°
2026-05-04 16:31 34.02162 -118.27662 16058 ft 415 kts 55°
2026-05-04 16:32 34.07148 -118.18862 17641 ft 432 kts 55°
2026-05-04 16:33 34.10572 -118.12799 18581 ft 443 kts 55°
2026-05-04 16:33 34.14075 -118.06594 19441 ft 452 kts 55°
2026-05-04 16:34 34.17649 -118.00248 20260 ft 462 kts 55°
2026-05-04 16:34 34.19463 -117.97026 20688 ft 466 kts 55°
2026-05-04 16:35 34.25000 -117.87156 21886 ft 481 kts 56°
2026-05-04 16:35 34.30689 -117.77003 23161 ft 493 kts 56°
2026-05-04 16:36 34.32625 -117.73557 23655 ft 497 kts 56°
2026-05-04 16:36 34.36015 -117.66216 24221 ft 504 kts 70°
2026-05-04 16:37 34.38617 -117.58293 24789 ft 510 kts 71°
2026-05-04 16:37 34.39913 -117.54279 25087 ft 513 kts 71°
2026-05-04 16:37 34.42538 -117.46179 25647 ft 520 kts 71°
2026-05-04 16:38 34.45190 -117.38000 26280 ft 525 kts 71°
2026-05-04 16:39 34.49205 -117.25594 27177 ft 534 kts 72°
2026-05-04 16:39 34.51926 -117.17160 27683 ft 540 kts 72°
2026-05-04 16:40 34.55189 -117.08904 28232 ft 550 kts 54°
2026-05-04 16:40 34.59996 -117.01627 28790 ft 555 kts 49°
2026-05-04 16:41 34.64986 -116.94403 29308 ft 561 kts 49°
2026-05-04 16:41 34.72543 -116.83385 30041 ft 571 kts 49°
2026-05-04 16:42 34.80201 -116.72168 30615 ft 578 kts 50°
2026-05-04 16:43 34.85341 -116.64616 31055 ft 581 kts 48°
2026-05-04 16:43 34.90770 -116.57278 31489 ft 585 kts 45°
2026-05-04 16:43 34.93521 -116.53629 31720 ft 586 kts 46°
2026-05-04 16:44 35.04524 -116.38919 32761 ft 588 kts 46°
2026-05-04 16:45 35.10020 -116.31532 33323 ft 588 kts 46°
2026-05-04 16:46 35.18219 -116.20461 34026 ft 589 kts 46°
2026-05-04 16:46 35.23714 -116.13021 34523 ft 588 kts 46°
2026-05-04 16:47 35.29186 -116.05628 35108 ft 584 kts 45°
2026-05-04 16:47 35.34628 -115.98248 35564 ft 584 kts 45°
2026-05-04 16:48 35.42774 -115.87162 36190 ft 584 kts 44°
2026-05-04 16:48 35.45488 -115.83458 36428 ft 583 kts 44°
2026-05-04 16:49 35.50895 -115.76077 36878 ft 581 kts 44°
2026-05-04 16:49 35.56281 -115.68697 37300 ft 579 kts 44°
2026-05-04 16:50 35.61646 -115.61330 37721 ft 577 kts 43°
2026-05-04 16:50 35.66969 -115.54005 38219 ft 573 kts 43°
2026-05-04 16:51 35.72269 -115.46701 38623 ft 571 kts 43°
2026-05-04 16:51 35.74910 -115.43053 38756 ft 571 kts 43°
2026-05-04 16:51 35.80156 -115.35797 38917 ft 571 kts 43°
2026-05-04 16:52 35.85426 -115.28489 38922 ft 569 kts 43°
2026-05-04 16:53 35.93375 -115.17445 38929 ft 579 kts 43°
2026-05-04 16:54 36.04105 -115.02469 38891 ft 582 kts 43°
2026-05-04 16:55 36.19320 -114.79049 38856 ft 590 kts 66°
2026-05-04 16:56 36.26666 -114.55281 38851 ft 592 kts 71°
2026-05-04 16:57 36.30959 -114.40923 38841 ft 594 kts 71°
2026-05-04 16:58 36.36737 -114.21783 38819 ft 594 kts 70°
2026-05-04 17:00 36.45358 -113.92951 38824 ft 594 kts 70°
2026-05-04 17:01 36.52504 -113.68840 38829 ft 595 kts 70°
2026-05-04 17:02 36.58178 -113.49541 38827 ft 594 kts 70°
2026-05-04 17:03 36.62406 -113.35060 38836 ft 593 kts 70°
2026-05-04 17:03 36.66606 -113.20593 38859 ft 592 kts 70°
2026-05-04 17:04 36.72176 -113.01269 38926 ft 592 kts 69°
2026-05-04 17:05 36.77706 -112.81964 38924 ft 591 kts 69°
2026-05-04 17:06 36.81833 -112.67464 38887 ft 591 kts 70°
2026-05-04 17:07 36.85474 -112.54606 38851 ft 590 kts 70°
2026-05-04 17:07 36.88660 -112.43304 38852 ft 590 kts 69°
2026-05-04 17:08 36.92722 -112.28801 38854 ft 589 kts 69°
2026-05-04 17:09 36.95405 -112.19197 38854 ft 589 kts 69°
2026-05-04 17:09 36.98102 -112.09523 38850 ft 589 kts 69°
2026-05-04 17:10 37.04796 -111.85340 38852 ft 588 kts 69°
2026-05-04 17:11 37.07469 -111.75649 38853 ft 589 kts 70°
2026-05-04 17:12 37.11462 -111.61061 38854 ft 591 kts 70°
2026-05-04 17:13 37.18094 -111.36676 38906 ft 590 kts 70°
2026-05-04 17:14 37.23349 -111.17132 38866 ft 591 kts 71°
2026-05-04 17:15 37.27277 -111.02466 38852 ft 591 kts 70°
2026-05-04 17:16 37.32484 -110.82881 38852 ft 591 kts 71°
2026-05-04 17:17 37.37222 -110.64913 38847 ft 592 kts 71°
2026-05-04 17:18 37.42374 -110.45257 38854 ft 592 kts 71°
2026-05-04 17:19 37.47494 -110.25553 38859 ft 592 kts 71°
2026-05-04 17:20 37.52566 -110.05891 38881 ft 592 kts 70°
2026-05-04 17:20 37.56360 -109.91070 38881 ft 592 kts 70°
2026-05-04 17:21 37.61395 -109.71309 38902 ft 591 kts 70°
2026-05-04 17:22 37.62647 -109.66373 39017 ft 591 kts 70°
2026-05-04 17:22 37.63893 -109.61420 39031 ft 593 kts 70°
2026-05-04 17:23 37.68867 -109.41594 39031 ft 592 kts 70°
2026-05-04 17:24 37.72584 -109.26733 38968 ft 591 kts 70°
2026-05-04 17:25 37.77498 -109.06883 38888 ft 592 kts 70°
2026-05-04 17:26 37.81883 -108.86818 38884 ft 594 kts 77°
2026-05-04 17:27 37.86031 -108.61146 38889 ft 596 kts 78°
2026-05-04 17:28 37.89285 -108.40601 38918 ft 594 kts 77°
2026-05-04 17:29 37.94114 -108.09758 39118 ft 597 kts 77°
2026-05-04 17:31 37.98085 -107.84071 38957 ft 594 kts 77°
2026-05-04 17:32 38.01945 -107.58317 38962 ft 595 kts 78°
2026-05-04 17:33 38.05052 -107.37687 38977 ft 597 kts 77°
2026-05-04 17:34 38.08086 -107.16975 38970 ft 597 kts 78°
2026-05-04 17:35 38.11846 -106.91136 38956 ft 596 kts 77°
2026-05-04 17:36 38.13342 -106.80767 38948 ft 598 kts 78°
2026-05-04 17:36 38.14826 -106.70372 38942 ft 598 kts 78°
2026-05-04 17:37 38.16298 -106.59979 38927 ft 597 kts 77°
2026-05-04 17:37 38.17760 -106.49600 38928 ft 596 kts 78°
2026-05-04 17:38 38.19212 -106.39230 38907 ft 596 kts 78°
2026-05-04 17:38 38.20657 -106.28843 38888 ft 597 kts 78°
2026-05-04 17:39 38.22807 -106.13244 38891 ft 597 kts 77°
2026-05-04 17:39 38.24239 -106.02839 38898 ft 598 kts 77°
2026-05-04 17:40 38.25665 -105.92433 38864 ft 596 kts 78°
2026-05-04 17:40 38.27051 -105.82048 38870 ft 595 kts 78°
2026-05-04 17:41 38.28428 -105.71680 38855 ft 594 kts 78°
2026-05-04 17:41 38.29804 -105.61309 38859 ft 595 kts 78°
2026-05-04 17:42 38.31178 -105.50919 38850 ft 595 kts 78°
2026-05-04 17:42 38.32532 -105.40590 38839 ft 595 kts 78°
2026-05-04 17:43 38.33882 -105.30185 38818 ft 596 kts 78°
2026-05-04 17:43 38.35225 -105.19784 38788 ft 594 kts 78°
2026-05-04 17:44 38.36560 -105.09400 38793 ft 595 kts 78°
2026-05-04 17:44 38.37888 -104.98985 38764 ft 596 kts 78°
2026-05-04 17:45 38.39206 -104.88564 38765 ft 595 kts 78°
2026-05-04 17:45 38.40511 -104.78149 38794 ft 595 kts 78°
2026-05-04 17:46 38.41808 -104.67732 38826 ft 595 kts 78°
2026-05-04 17:46 38.43098 -104.57301 38831 ft 595 kts 78°
2026-05-04 17:47 38.44378 -104.46867 38823 ft 595 kts 78°
2026-05-04 17:47 38.45649 -104.36427 38804 ft 596 kts 78°
2026-05-04 17:48 38.46911 -104.25983 38752 ft 596 kts 78°
2026-05-04 17:48 38.48164 -104.15532 38704 ft 595 kts 78°
2026-05-04 17:49 38.49406 -104.05087 38676 ft 595 kts 78°
2026-05-04 17:49 38.50772 -103.94677 38675 ft 594 kts 75°
2026-05-04 17:50 38.52506 -103.84390 38697 ft 593 kts 73°
2026-05-04 17:50 38.54303 -103.74129 38674 ft 590 kts 73°
2026-05-04 17:51 38.56039 -103.63910 38673 ft 589 kts 74°
2026-05-04 17:51 38.57736 -103.53664 38671 ft 589 kts 74°
2026-05-04 17:52 38.59412 -103.43413 38672 ft 588 kts 74°
2026-05-04 17:52 38.61075 -103.33187 38674 ft 587 kts 74°
2026-05-04 17:53 38.62729 -103.22979 38675 ft 587 kts 74°
2026-05-04 17:53 38.64378 -103.12751 38699 ft 587 kts 74°
2026-05-04 17:54 38.66013 -103.02543 38677 ft 584 kts 74°
2026-05-04 17:54 38.67633 -102.92367 38676 ft 583 kts 74°
2026-05-04 17:55 38.69245 -102.82192 38681 ft 584 kts 74°
2026-05-04 17:55 38.70848 -102.72008 38687 ft 583 kts 75°
2026-05-04 17:56 38.72433 -102.61868 38689 ft 579 kts 75°
2026-05-04 17:56 38.74006 -102.51754 38688 ft 579 kts 75°
2026-05-04 17:57 38.75572 -102.41626 38691 ft 579 kts 75°
2026-05-04 17:57 38.77126 -102.31511 38692 ft 576 kts 75°
2026-05-04 17:58 38.78659 -102.21464 38692 ft 574 kts 75°
2026-05-04 17:58 38.80186 -102.11412 38690 ft 575 kts 75°
2026-05-04 17:59 38.81695 -102.01421 38697 ft 574 kts 75°
2026-05-04 18:00 38.83945 -101.86385 38691 ft 571 kts 75°
2026-05-04 18:00 38.85360 -101.76350 38690 ft 573 kts 78°
2026-05-04 18:01 38.86331 -101.66180 38704 ft 574 kts 81°
2026-05-04 18:01 38.87154 -101.56018 38690 ft 571 kts 81°
2026-05-04 18:02 38.88442 -101.40840 38682 ft 570 kts 81°
2026-05-04 18:02 38.89330 -101.30722 38691 ft 570 kts 81°
2026-05-04 18:03 38.90070 -101.22247 38681 ft 569 kts 81°
2026-05-04 18:03 38.90941 -101.12167 38699 ft 568 kts 81°
2026-05-04 18:04 38.91801 -101.02089 38727 ft 568 kts 81°
2026-05-04 18:05 38.93075 -100.86959 38745 ft 568 kts 81°
2026-05-04 18:05 38.93914 -100.76865 38749 ft 568 kts 81°
2026-05-04 18:06 38.95150 -100.61793 38733 ft 568 kts 81°
2026-05-04 18:06 38.95966 -100.51690 38718 ft 568 kts 81°
2026-05-04 18:07 38.96770 -100.41624 38695 ft 566 kts 81°
2026-05-04 18:07 38.97567 -100.31563 38689 ft 566 kts 81°
2026-05-04 18:08 38.98354 -100.21500 38691 ft 566 kts 81°
2026-05-04 18:08 38.99133 -100.11429 38694 ft 566 kts 81°
2026-05-04 18:09 39.00669 -99.91310 38695 ft 566 kts 81°
2026-05-04 18:10 39.01434 -99.81240 38710 ft 566 kts 81°
2026-05-04 18:10 39.02189 -99.71174 38696 ft 566 kts 81°
2026-05-04 18:11 39.02936 -99.61100 38702 ft 566 kts 81°
2026-05-04 18:11 39.03672 -99.51028 38702 ft 566 kts 81°
2026-05-04 18:12 39.04401 -99.40948 38704 ft 566 kts 81°
2026-05-04 18:12 39.05121 -99.30863 38731 ft 566 kts 81°
2026-05-04 18:13 39.05833 -99.20773 38724 ft 566 kts 81°
2026-05-04 18:14 39.06883 -99.05643 38708 ft 566 kts 81°
2026-05-04 18:14 39.07568 -98.95615 38708 ft 566 kts 81°
2026-05-04 18:15 39.08923 -98.75419 38712 ft 567 kts 81°
2026-05-04 18:16 39.09587 -98.65308 38702 ft 567 kts 81°
2026-05-04 18:16 39.10241 -98.55201 38696 ft 566 kts 81°
2026-05-04 18:17 39.11208 -98.40039 38676 ft 567 kts 81°
2026-05-04 18:18 39.12155 -98.24879 38675 ft 566 kts 81°
2026-05-04 18:18 39.12774 -98.14777 38677 ft 566 kts 81°
2026-05-04 18:19 39.13688 -97.99618 38677 ft 566 kts 81°
2026-05-04 18:19 39.14286 -97.89512 38677 ft 565 kts 81°
2026-05-04 18:20 39.14873 -97.79428 38678 ft 565 kts 81°
2026-05-04 18:20 39.15453 -97.69338 38674 ft 565 kts 81°
2026-05-04 18:21 39.16024 -97.59248 38678 ft 565 kts 81°
2026-05-04 18:21 39.16585 -97.49165 38672 ft 564 kts 81°
2026-05-04 18:22 39.17133 -97.39169 38673 ft 563 kts 81°
2026-05-04 18:22 39.17676 -97.29096 38666 ft 563 kts 81°
2026-05-04 18:23 39.18211 -97.19025 38667 ft 563 kts 81°
2026-05-04 18:23 39.18737 -97.08951 38673 ft 563 kts 81°
2026-05-04 18:24 39.19254 -96.98878 38684 ft 564 kts 81°
2026-05-04 18:24 39.19763 -96.88792 38691 ft 564 kts 81°
2026-05-04 18:25 39.20263 -96.78713 38710 ft 563 kts 82°
2026-05-04 18:25 39.20752 -96.68660 38711 ft 561 kts 82°
2026-05-04 18:26 39.21232 -96.58622 38710 ft 561 kts 82°
2026-05-04 18:26 39.21705 -96.48582 38674 ft 561 kts 82°
2026-05-04 18:27 39.22168 -96.38549 38674 ft 559 kts 82°
2026-05-04 18:27 39.22619 -96.28558 38674 ft 558 kts 82°
2026-05-04 18:28 39.23063 -96.18565 38669 ft 558 kts 82°
2026-05-04 18:28 39.23500 -96.08566 38695 ft 558 kts 82°
2026-05-04 18:29 39.23925 -95.98594 38674 ft 555 kts 82°
2026-05-04 18:29 39.24338 -95.88684 38678 ft 553 kts 82°
2026-05-04 18:30 39.24945 -95.73828 38686 ft 553 kts 82°
2026-05-04 18:31 39.25339 -95.63926 38681 ft 551 kts 83°
2026-05-04 18:31 39.25721 -95.54070 38693 ft 549 kts 83°
2026-05-04 18:32 39.26092 -95.44295 38690 ft 549 kts 83°
2026-05-04 18:32 39.26459 -95.34453 38687 ft 549 kts 83°
2026-05-04 18:33 39.26816 -95.24628 38692 ft 546 kts 83°
2026-05-04 18:33 39.27161 -95.14865 38696 ft 544 kts 83°
2026-05-04 18:34 39.27500 -95.05119 38693 ft 544 kts 83°
2026-05-04 18:34 39.27830 -94.95358 38701 ft 544 kts 83°
2026-05-04 18:35 39.28152 -94.85617 38705 ft 542 kts 83°
2026-05-04 18:35 39.28520 -94.75916 38710 ft 538 kts 78°
2026-05-04 18:36 39.30142 -94.66607 38701 ft 530 kts 69°
2026-05-04 18:36 39.32178 -94.57465 38695 ft 529 kts 67°
2026-05-04 18:37 39.34282 -94.48389 38711 ft 526 kts 67°
2026-05-04 18:37 39.36362 -94.39328 38724 ft 525 kts 68°
2026-05-04 18:38 39.38415 -94.30271 38676 ft 526 kts 68°
2026-05-04 18:38 39.40455 -94.21195 38685 ft 526 kts 68°
2026-05-04 18:39 39.42483 -94.12126 38673 ft 524 kts 68°
2026-05-04 18:39 39.44484 -94.03145 38679 ft 523 kts 68°
2026-05-04 18:40 39.46489 -93.94119 38681 ft 523 kts 68°
2026-05-04 18:40 39.48492 -93.85066 38679 ft 523 kts 68°
2026-05-04 18:41 39.50485 -93.76020 38693 ft 522 kts 69°
2026-05-04 18:41 39.52460 -93.67007 38700 ft 519 kts 69°
2026-05-04 18:42 39.54420 -93.58033 38681 ft 517 kts 69°
2026-05-04 18:42 39.56374 -93.49054 38687 ft 517 kts 69°
2026-05-04 18:43 39.58320 -93.40076 38686 ft 517 kts 69°
2026-05-04 18:43 39.60259 -93.31092 38687 ft 517 kts 69°
2026-05-04 18:44 39.62190 -93.22104 38688 ft 518 kts 69°
2026-05-04 18:44 39.64115 -93.13110 38692 ft 518 kts 69°
2026-05-04 18:45 39.66034 -93.04103 38700 ft 518 kts 70°
2026-05-04 18:45 39.67940 -92.95123 38694 ft 515 kts 70°
2026-05-04 18:46 39.69834 -92.86158 38701 ft 515 kts 70°
2026-05-04 18:46 39.71722 -92.77192 38699 ft 515 kts 70°
2026-05-04 18:47 39.73602 -92.68224 38704 ft 515 kts 70°
2026-05-04 18:47 39.75472 -92.59259 38704 ft 513 kts 70°
2026-05-04 18:48 39.77327 -92.50327 38703 ft 511 kts 70°
2026-05-04 18:48 39.79175 -92.41402 38701 ft 511 kts 71°
2026-05-04 18:49 39.81015 -92.32472 38697 ft 511 kts 71°
2026-05-04 18:49 39.82849 -92.23539 38697 ft 511 kts 71°
2026-05-04 18:50 39.84671 -92.14617 38693 ft 509 kts 71°
2026-05-04 18:50 39.86470 -92.05769 38690 ft 509 kts 71°
2026-05-04 18:51 39.88276 -91.96856 38686 ft 509 kts 71°
2026-05-04 18:51 39.90076 -91.87936 38690 ft 509 kts 72°
2026-05-04 18:52 39.91864 -91.79028 38690 ft 508 kts 72°
2026-05-04 18:52 39.93355 -91.71570 38692 ft 508 kts 72°
2026-05-04 18:53 39.95117 -91.62726 38694 ft 508 kts 72°
2026-05-04 18:53 39.96000 -91.58279 38878 ft 505 kts 72°
2026-05-04 18:53 39.96869 -91.53880 39246 ft 499 kts 72°
2026-05-04 18:53 39.97728 -91.49525 39524 ft 495 kts 72°
2026-05-04 18:54 39.98584 -91.45186 39718 ft 493 kts 72°
2026-05-04 18:54 39.99438 -91.40850 39854 ft 494 kts 72°
2026-05-04 18:54 40.00291 -91.36511 39958 ft 494 kts 72°
2026-05-04 18:54 40.01142 -91.32177 40079 ft 494 kts 72°
2026-05-04 18:55 40.01993 -91.27828 40196 ft 494 kts 72°
2026-05-04 18:55 40.03690 -91.19122 40417 ft 495 kts 72°
2026-05-04 18:55 40.04536 -91.14767 40523 ft 496 kts 72°
2026-05-04 18:56 40.05381 -91.10407 40660 ft 495 kts 72°
2026-05-04 18:56 40.06225 -91.06046 40694 ft 497 kts 72°
2026-05-04 18:56 40.07921 -90.97255 40674 ft 502 kts 73°
2026-05-04 18:57 40.09626 -90.88377 40677 ft 507 kts 73°
2026-05-04 18:57 40.11342 -90.79398 40676 ft 510 kts 73°
2026-05-04 18:58 40.13050 -90.70408 40678 ft 509 kts 73°
2026-05-04 18:58 40.14747 -90.61441 40677 ft 508 kts 73°
2026-05-04 18:59 40.16437 -90.52473 40675 ft 508 kts 73°
2026-05-04 18:59 40.18121 -90.43499 40678 ft 508 kts 73°
2026-05-04 19:00 40.19799 -90.34517 40672 ft 508 kts 73°
2026-05-04 19:00 40.21467 -90.25547 40677 ft 507 kts 73°
2026-05-04 19:01 40.23126 -90.16588 40672 ft 507 kts 73°
2026-05-04 19:01 40.24778 -90.07623 40670 ft 507 kts 73°
2026-05-04 19:02 40.26423 -89.98653 40690 ft 506 kts 74°
2026-05-04 19:02 40.28048 -89.89753 40679 ft 505 kts 74°
2026-05-04 19:03 40.29674 -89.80802 40680 ft 505 kts 74°
2026-05-04 19:03 40.31294 -89.71847 40683 ft 505 kts 74°
2026-05-04 19:04 40.32905 -89.62893 40693 ft 505 kts 74°
2026-05-04 19:04 40.34512 -89.53926 40695 ft 505 kts 74°
2026-05-04 19:05 40.36110 -89.44959 40698 ft 505 kts 74°
2026-05-04 19:05 40.37703 -89.35984 40707 ft 505 kts 74°
2026-05-04 19:06 40.39288 -89.27006 40701 ft 505 kts 74°
2026-05-04 19:06 40.40866 -89.18024 40702 ft 505 kts 74°
2026-05-04 19:07 40.42434 -89.09052 40699 ft 504 kts 75°
2026-05-04 19:07 40.43993 -89.00089 40711 ft 504 kts 75°
2026-05-04 19:08 40.45546 -88.91118 40711 ft 504 kts 75°
2026-05-04 19:08 40.47092 -88.82143 40735 ft 504 kts 75°
2026-05-04 19:09 40.48630 -88.73166 40708 ft 503 kts 75°
2026-05-04 19:09 40.50158 -88.64201 40709 ft 503 kts 75°
2026-05-04 19:10 40.51681 -88.55225 40708 ft 503 kts 75°
2026-05-04 19:10 40.53197 -88.46248 40717 ft 503 kts 75°
2026-05-04 19:11 40.54705 -88.37272 40714 ft 502 kts 75°
2026-05-04 19:11 40.56203 -88.28307 40711 ft 502 kts 75°
2026-05-04 19:12 40.58007 -88.14817 40716 ft 504 kts 87°
2026-05-04 19:13 40.58027 -88.05586 40693 ft 505 kts 90°
2026-05-04 19:13 40.57834 -87.96355 40691 ft 505 kts 91°
2026-05-04 19:14 40.57606 -87.87134 40692 ft 505 kts 90°
2026-05-04 19:14 40.57390 -87.77905 40689 ft 505 kts 90°
2026-05-04 19:15 40.57181 -87.68684 40698 ft 505 kts 90°
2026-05-04 19:15 40.56969 -87.59467 40695 ft 504 kts 91°
2026-05-04 19:16 40.56749 -87.50248 40704 ft 504 kts 91°
2026-05-04 19:16 40.56521 -87.41045 40701 ft 504 kts 91°
2026-05-04 19:17 40.56286 -87.31833 40702 ft 504 kts 91°
2026-05-04 19:17 40.56043 -87.22621 40707 ft 504 kts 91°
2026-05-04 19:18 40.55793 -87.13404 40724 ft 504 kts 91°
2026-05-04 19:18 40.56219 -87.04255 40734 ft 501 kts 77°
2026-05-04 19:19 40.57659 -86.95301 40733 ft 500 kts 75°
2026-05-04 19:19 40.59284 -86.86397 40709 ft 501 kts 74°
2026-05-04 19:20 40.60923 -86.77490 40705 ft 501 kts 74°
2026-05-04 19:20 40.62534 -86.68576 40701 ft 501 kts 75°
2026-05-04 19:21 40.64126 -86.59651 40700 ft 501 kts 75°
2026-05-04 19:21 40.65707 -86.50721 40750 ft 501 kts 75°
2026-05-04 19:22 40.67273 -86.41834 40750 ft 501 kts 75°
2026-05-04 19:22 40.68843 -86.32887 40749 ft 501 kts 75°
2026-05-04 19:23 40.70408 -86.23930 40718 ft 502 kts 75°
2026-05-04 19:23 40.71964 -86.14974 40722 ft 501 kts 75°
2026-05-04 19:24 40.73515 -86.06009 40716 ft 502 kts 75°
2026-05-04 19:24 40.75058 -85.97041 40715 ft 502 kts 75°
2026-05-04 19:25 40.76596 -85.88064 40712 ft 502 kts 75°
2026-05-04 19:25 40.78125 -85.79090 40720 ft 501 kts 75°
2026-05-04 19:26 40.79647 -85.70107 40724 ft 501 kts 75°
2026-05-04 19:26 40.81162 -85.61121 40725 ft 502 kts 76°
2026-05-04 19:27 40.82670 -85.52131 40738 ft 502 kts 76°
2026-05-04 19:27 40.84171 -85.43144 40729 ft 501 kts 76°
2026-05-04 19:28 40.85665 -85.34145 40729 ft 502 kts 76°
2026-05-04 19:28 40.87170 -85.25150 40730 ft 501 kts 74°
2026-05-04 19:29 40.89018 -85.16283 40730 ft 500 kts 71°
2026-05-04 19:29 40.91030 -85.07483 40730 ft 500 kts 71°
2026-05-04 19:30 40.93025 -84.98666 40730 ft 500 kts 71°
2026-05-04 19:30 40.94978 -84.89833 40734 ft 501 kts 71°
2026-05-04 19:31 40.96911 -84.80982 40741 ft 501 kts 72°
2026-05-04 19:31 40.98836 -84.72117 40739 ft 501 kts 72°
2026-05-04 19:32 41.00741 -84.63319 40755 ft 501 kts 72°
2026-05-04 19:32 41.02655 -84.54447 40737 ft 501 kts 72°
2026-05-04 19:33 41.04563 -84.45565 40730 ft 501 kts 72°
2026-05-04 19:33 41.06477 -84.36623 40731 ft 501 kts 72°
2026-05-04 19:34 41.08359 -84.27788 40740 ft 501 kts 72°
2026-05-04 19:34 41.10259 -84.18833 40739 ft 502 kts 72°
2026-05-04 19:35 41.12141 -84.09925 40741 ft 502 kts 72°
2026-05-04 19:35 41.14017 -84.01008 40749 ft 502 kts 72°
2026-05-04 19:36 41.15886 -83.92087 40742 ft 502 kts 72°
2026-05-04 19:36 41.17748 -83.83162 40742 ft 502 kts 72°
2026-05-04 19:37 41.19590 -83.74295 40741 ft 502 kts 72°
2026-05-04 19:37 41.21440 -83.65357 40736 ft 502 kts 72°
2026-05-04 19:38 41.23284 -83.56405 40742 ft 502 kts 72°
2026-05-04 19:38 41.25120 -83.47455 40738 ft 503 kts 73°
2026-05-04 19:39 41.26955 -83.38475 40747 ft 503 kts 73°
2026-05-04 19:39 41.28487 -83.30946 40746 ft 503 kts 73°
2026-05-04 19:40 41.30296 -83.22019 40751 ft 503 kts 73°
2026-05-04 19:40 41.32110 -83.13029 40737 ft 504 kts 73°
2026-05-04 19:41 41.33920 -83.04019 40741 ft 504 kts 73°
2026-05-04 19:41 41.35725 -82.94997 40740 ft 505 kts 73°
2026-05-04 19:42 41.37525 -82.85956 40739 ft 506 kts 73°
2026-05-04 19:42 41.39321 -82.76893 40731 ft 506 kts 73°
2026-05-04 19:43 41.41109 -82.67830 40735 ft 506 kts 73°
2026-05-04 19:43 41.42891 -82.58758 40735 ft 506 kts 73°
2026-05-04 19:44 41.44667 -82.49675 40751 ft 506 kts 73°
2026-05-04 19:44 41.46434 -82.40594 40760 ft 506 kts 73°
2026-05-04 19:45 41.48194 -82.31505 40767 ft 506 kts 73°
2026-05-04 19:45 41.49948 -82.22407 40749 ft 506 kts 73°
2026-05-04 19:46 41.51695 -82.13306 40758 ft 507 kts 73°
2026-05-04 19:46 41.53436 -82.04192 40752 ft 507 kts 73°
2026-05-04 19:47 41.55169 -81.95074 40758 ft 507 kts 74°
2026-05-04 19:47 41.56895 -81.85950 40758 ft 507 kts 74°
2026-05-04 19:48 41.58615 -81.76819 40759 ft 507 kts 74°
2026-05-04 19:48 41.60326 -81.67689 40756 ft 507 kts 74°
2026-05-04 19:49 41.62031 -81.58550 40755 ft 507 kts 74°
2026-05-04 19:49 41.63729 -81.49401 40786 ft 507 kts 74°
2026-05-04 19:50 41.65420 -81.40248 40759 ft 507 kts 74°
2026-05-04 19:50 41.67092 -81.31148 40756 ft 507 kts 74°
2026-05-04 19:51 41.68770 -81.21976 40754 ft 508 kts 74°
2026-05-04 19:51 41.70442 -81.12793 40751 ft 508 kts 74°
2026-05-04 19:52 41.72105 -81.03610 40755 ft 508 kts 75°
2026-05-04 19:52 41.73763 -80.94413 40763 ft 508 kts 75°
2026-05-04 19:53 41.75412 -80.85219 40773 ft 508 kts 75°
2026-05-04 19:53 41.77056 -80.76009 40776 ft 508 kts 75°
2026-05-04 19:54 41.78701 -80.66748 40776 ft 508 kts 75°
2026-05-04 19:54 41.80490 -80.57602 40775 ft 506 kts 69°
2026-05-04 19:55 41.82782 -80.48745 40770 ft 506 kts 68°
2026-05-04 19:55 41.85187 -80.39864 40778 ft 506 kts 67°
2026-05-04 19:56 41.87601 -80.30987 40765 ft 506 kts 67°
2026-05-04 19:56 41.89999 -80.22106 40765 ft 506 kts 68°
2026-05-04 19:57 41.92386 -80.13205 40766 ft 506 kts 68°
2026-05-04 19:57 41.94746 -80.04362 40765 ft 506 kts 68°
2026-05-04 19:58 41.97115 -79.95458 40791 ft 506 kts 68°
2026-05-04 19:58 41.99480 -79.86537 40776 ft 506 kts 68°
2026-05-04 19:59 42.01135 -79.77344 40776 ft 510 kts 84°
2026-05-04 19:59 42.01004 -79.67868 40792 ft 511 kts 94°
2026-05-04 20:00 42.00341 -79.58337 40795 ft 512 kts 96°
2026-05-04 20:00 41.99583 -79.48810 40800 ft 513 kts 96°
2026-05-04 20:01 41.98851 -79.39284 40803 ft 513 kts 95°
2026-05-04 20:01 41.98147 -79.29830 40805 ft 512 kts 95°
2026-05-04 20:02 41.97438 -79.20291 40805 ft 512 kts 95°
2026-05-04 20:02 41.96722 -79.10772 40807 ft 512 kts 95°
2026-05-04 20:03 41.95996 -79.01240 40807 ft 512 kts 95°
2026-05-04 20:03 41.95262 -78.91726 40805 ft 512 kts 95°
2026-05-04 20:04 41.94526 -78.82281 40804 ft 512 kts 95°
2026-05-04 20:04 41.93775 -78.72763 40810 ft 512 kts 95°
2026-05-04 20:05 41.93018 -78.63263 40811 ft 512 kts 95°
2026-05-04 20:05 41.92253 -78.53744 40812 ft 513 kts 95°
2026-05-04 20:06 41.91479 -78.44229 40811 ft 513 kts 96°
2026-05-04 20:06 41.90702 -78.34777 40809 ft 513 kts 96°
2026-05-04 20:07 41.89912 -78.25266 40808 ft 513 kts 96°
2026-05-04 20:07 41.89115 -78.15759 40811 ft 513 kts 96°
2026-05-04 20:08 41.88311 -78.06264 40812 ft 513 kts 96°
2026-05-04 20:08 41.87501 -77.96806 40812 ft 512 kts 96°
2026-05-04 20:09 41.86621 -77.87325 40812 ft 513 kts 101°
2026-05-04 20:09 41.84655 -77.78136 40821 ft 513 kts 109°
2026-05-04 20:10 41.82319 -77.69107 40826 ft 513 kts 110°
2026-05-04 20:10 41.79920 -77.60163 40817 ft 513 kts 110°
2026-05-04 20:11 41.77509 -77.51160 40811 ft 513 kts 110°
2026-05-04 20:11 41.75106 -77.42160 40813 ft 513 kts 110°
2026-05-04 20:12 41.72705 -77.33170 40811 ft 513 kts 110°
2026-05-04 20:12 41.70315 -77.24247 40813 ft 513 kts 110°
2026-05-04 20:13 41.67899 -77.15262 40802 ft 513 kts 110°
2026-05-04 20:13 41.65482 -77.06308 40806 ft 512 kts 110°
2026-05-04 20:14 41.63057 -76.97363 40805 ft 511 kts 110°
2026-05-04 20:14 41.60627 -76.88432 40807 ft 511 kts 110°
2026-05-04 20:15 41.58207 -76.79571 40808 ft 511 kts 110°
2026-05-04 20:15 41.55762 -76.70650 40583 ft 511 kts 110°
2026-05-04 20:15 41.54540 -76.66199 40338 ft 509 kts 110°
2026-05-04 20:16 41.53323 -76.61777 40109 ft 507 kts 110°
2026-05-04 20:16 41.52110 -76.57375 39872 ft 504 kts 110°
2026-05-04 20:16 41.50900 -76.52997 39630 ft 502 kts 110°
2026-05-04 20:16 41.49695 -76.48637 39417 ft 500 kts 109°
2026-05-04 20:17 41.48495 -76.44306 39195 ft 497 kts 109°
2026-05-04 20:17 41.47313 -76.40046 38962 ft 496 kts 109°
2026-05-04 20:17 41.46118 -76.35745 38746 ft 495 kts 109°
2026-05-04 20:17 41.44919 -76.31436 38525 ft 495 kts 109°
2026-05-04 20:18 41.43724 -76.27150 38246 ft 495 kts 109°
2026-05-04 20:18 41.42522 -76.22848 37955 ft 495 kts 109°
2026-05-04 20:18 41.41318 -76.18542 37666 ft 494 kts 109°
2026-05-04 20:18 41.40122 -76.14276 37170 ft 493 kts 109°
2026-05-04 20:19 41.38918 -76.09985 36507 ft 494 kts 109°
2026-05-04 20:19 41.37710 -76.05692 35849 ft 496 kts 108°
2026-05-04 20:19 41.36512 -76.01438 35133 ft 499 kts 108°
2026-05-04 20:19 41.35289 -75.97101 34365 ft 503 kts 108°
2026-05-04 20:20 41.34053 -75.92725 33510 ft 507 kts 108°
2026-05-04 20:20 41.32807 -75.88319 32617 ft 510 kts 108°
2026-05-04 20:20 41.31556 -75.83908 31743 ft 509 kts 109°
2026-05-04 20:20 41.30317 -75.79548 30893 ft 499 kts 109°
2026-05-04 20:21 41.29095 -75.75261 30011 ft 494 kts 109°
2026-05-04 20:21 41.27870 -75.70962 28966 ft 500 kts 109°
2026-05-04 20:21 41.25180 -75.62529 27665 ft 494 kts 113°
2026-05-04 20:22 41.23783 -75.58373 27013 ft 492 kts 113°
2026-05-04 20:22 41.22391 -75.54236 26381 ft 489 kts 113°
2026-05-04 20:22 41.21007 -75.50120 25725 ft 487 kts 113°
2026-05-04 20:22 41.19628 -75.46020 25050 ft 485 kts 114°
2026-05-04 20:23 41.18255 -75.41939 24380 ft 483 kts 114°
2026-05-04 20:23 41.16885 -75.37872 23707 ft 482 kts 114°
2026-05-04 20:23 41.15524 -75.33836 23131 ft 475 kts 114°
2026-05-04 20:23 41.14206 -75.29931 22792 ft 456 kts 114°
2026-05-04 20:24 41.12931 -75.26152 22678 ft 458 kts 114°
2026-05-04 20:24 41.11625 -75.22289 22534 ft 456 kts 114°
2026-05-04 20:24 41.10329 -75.18459 22401 ft 454 kts 114°
2026-05-04 20:24 41.09036 -75.14645 22267 ft 453 kts 114°
2026-05-04 20:25 41.07751 -75.10858 22128 ft 453 kts 114°
2026-05-04 20:25 41.06453 -75.07040 22002 ft 452 kts 114°
2026-05-04 20:25 41.05162 -75.03249 21867 ft 451 kts 114°
2026-05-04 20:25 41.03873 -74.99468 21727 ft 449 kts 114°
2026-05-04 20:26 41.02590 -74.95707 21598 ft 448 kts 114°
2026-05-04 20:26 41.01305 -74.91948 21464 ft 447 kts 114°
2026-05-04 20:26 41.00075 -74.88236 21320 ft 446 kts 110°
2026-05-04 20:26 40.99272 -74.84287 21206 ft 444 kts 99°
2026-05-04 20:27 40.98765 -74.80262 21064 ft 443 kts 97°
2026-05-04 20:27 40.98309 -74.76231 20933 ft 442 kts 97°
2026-05-04 20:27 40.97854 -74.72210 20799 ft 442 kts 97°
2026-05-04 20:27 40.97394 -74.68196 20670 ft 441 kts 97°
2026-05-04 20:28 40.96929 -74.64196 20526 ft 440 kts 97°
2026-05-04 20:28 40.96461 -74.60201 20423 ft 439 kts 98°
2026-05-04 20:28 40.95991 -74.56219 20270 ft 438 kts 98°
2026-05-04 20:28 40.95525 -74.52293 20162 ft 437 kts 98°
2026-05-04 20:29 40.95047 -74.48276 20041 ft 436 kts 98°
2026-05-04 20:29 40.94580 -74.44364 19893 ft 436 kts 98°
2026-05-04 20:29 40.94108 -74.40419 19771 ft 435 kts 98°
2026-05-04 20:29 40.93633 -74.36464 19636 ft 434 kts 98°
2026-05-04 20:30 40.93159 -74.32530 19510 ft 432 kts 98°
2026-05-04 20:30 40.92693 -74.28681 19389 ft 412 kts 98°
2026-05-04 20:30 40.92252 -74.25053 19289 ft 387 kts 98°
2026-05-04 20:30 40.91834 -74.21615 19185 ft 372 kts 98°
2026-05-04 20:31 40.91427 -74.18272 18974 ft 365 kts 98°
2026-05-04 20:31 40.91023 -74.15010 18766 ft 364 kts 100°
2026-05-04 20:31 40.90315 -74.11810 18542 ft 363 kts 117°
2026-05-04 20:31 40.88873 -74.09123 18341 ft 357 kts 139°
2026-05-04 20:32 40.86881 -74.07244 18034 ft 350 kts 154°
2026-05-04 20:32 40.84700 -74.05833 17495 ft 348 kts 163°
2026-05-04 20:32 40.82410 -74.04792 16972 ft 348 kts 167°
2026-05-04 20:32 40.80105 -74.03835 16450 ft 348 kts 167°
2026-05-04 20:33 40.77793 -74.02886 15962 ft 344 kts 167°
2026-05-04 20:33 40.75542 -74.01956 15503 ft 334 kts 167°
2026-05-04 20:33 40.73356 -74.01048 15190 ft 329 kts 167°
2026-05-04 20:33 40.71174 -74.00144 14863 ft 328 kts 167°
2026-05-04 20:34 40.69008 -73.99246 14548 ft 325 kts 167°
2026-05-04 20:34 40.66859 -73.98357 14223 ft 323 kts 167°
2026-05-04 20:34 40.64723 -73.97472 13917 ft 321 kts 167°
2026-05-04 20:34 40.62642 -73.96606 13591 ft 319 kts 167°
2026-05-04 20:35 40.60523 -73.95725 13255 ft 317 kts 167°
2026-05-04 20:35 40.58426 -73.94853 12913 ft 315 kts 167°
2026-05-04 20:35 40.56346 -73.93990 12595 ft 313 kts 167°
2026-05-04 20:35 40.54277 -73.93134 12258 ft 310 kts 167°
2026-05-04 20:36 40.52223 -73.92286 11921 ft 308 kts 167°
2026-05-04 20:36 40.50182 -73.91445 11595 ft 307 kts 167°
2026-05-04 20:36 40.48155 -73.90600 11265 ft 306 kts 165°
2026-05-04 20:36 40.46333 -73.89217 10953 ft 312 kts 141°
2026-05-04 20:37 40.45043 -73.86928 10630 ft 315 kts 116°
2026-05-04 20:37 40.44457 -73.84160 10313 ft 316 kts 100°
2026-05-04 20:37 40.44153 -73.81306 9996 ft 315 kts 98°
2026-05-04 20:37 40.43888 -73.78451 9680 ft 314 kts 97°
2026-05-04 20:38 40.43629 -73.75617 9327 ft 312 kts 97°
2026-05-04 20:38 40.43374 -73.72796 8992 ft 310 kts 97°
2026-05-04 20:38 40.43124 -73.69990 8636 ft 309 kts 97°
2026-05-04 20:38 40.42878 -73.67197 8318 ft 307 kts 97°
2026-05-04 20:39 40.42717 -73.64454 7994 ft 305 kts 86°
2026-05-04 20:39 40.43265 -73.61813 7724 ft 300 kts 59°
2026-05-04 20:39 40.44571 -73.59746 7467 ft 292 kts 34°
2026-05-04 20:39 40.46266 -73.58333 7227 ft 288 kts 24°
2026-05-04 20:40 40.48042 -73.57119 6988 ft 288 kts 22°
2026-05-04 20:40 40.49823 -73.55918 6733 ft 287 kts 24°
2026-05-04 20:40 40.51576 -73.54667 6485 ft 286 kts 24°
2026-05-04 20:40 40.53320 -73.53405 6242 ft 286 kts 24°
2026-05-04 20:41 40.55059 -73.52147 5982 ft 285 kts 24°
2026-05-04 20:41 40.56800 -73.50899 5718 ft 285 kts 24°
2026-05-04 20:41 40.58532 -73.49667 5450 ft 283 kts 24°
2026-05-04 20:41 40.60235 -73.48458 5221 ft 277 kts 24°
2026-05-04 20:42 40.61918 -73.47267 4961 ft 272 kts 24°
2026-05-04 20:42 40.63564 -73.46105 4794 ft 265 kts 24°
2026-05-04 20:42 40.65177 -73.44964 4662 ft 263 kts 24°
2026-05-04 20:42 40.66789 -73.43826 4539 ft 262 kts 24°
2026-05-04 20:43 40.68396 -73.42693 4409 ft 262 kts 24°
2026-05-04 20:43 40.70006 -73.41562 4272 ft 261 kts 24°
2026-05-04 20:43 40.71607 -73.40442 4157 ft 261 kts 24°
2026-05-04 20:43 40.73211 -73.39328 4030 ft 260 kts 24°
2026-05-04 20:44 40.74791 -73.38236 3903 ft 259 kts 24°
2026-05-04 20:44 40.76450 -73.37391 3782 ft 252 kts
2026-05-04 20:44 40.78139 -73.37616 3663 ft 242 kts 334°
2026-05-04 20:44 40.79471 -73.38874 3557 ft 233 kts 307°
2026-05-04 20:45 40.80404 -73.40604 3422 ft 232 kts 298°
2026-05-04 20:45 40.81168 -73.42454 3295 ft 225 kts 292°
2026-05-04 20:45 40.81823 -73.44256 3213 ft 211 kts 291°
2026-05-04 20:45 40.82454 -73.45991 3089 ft 209 kts 291°
2026-05-04 20:46 40.83073 -73.47698 3003 ft 210 kts 291°
2026-05-04 20:46 40.83705 -73.49440 2969 ft 210 kts 291°
2026-05-04 20:46 40.84314 -73.51192 2961 ft 209 kts 286°
2026-05-04 20:46 40.84408 -73.53054 2980 ft 204 kts 258°
2026-05-04 20:47 40.83994 -73.54833 2971 ft 202 kts 248°
2026-05-04 20:47 40.83465 -73.56548 2983 ft 201 kts 247°
2026-05-04 20:47 40.82938 -73.58260 2985 ft 202 kts 247°
2026-05-04 20:47 40.82413 -73.59972 2986 ft 201 kts 247°
2026-05-04 20:48 40.81744 -73.61556 2989 ft 202 kts 231°
2026-05-04 20:48 40.80702 -73.62764 2963 ft 194 kts 217°
2026-05-04 20:48 40.79592 -73.63663 3001 ft 183 kts 214°
2026-05-04 20:48 40.78496 -73.64512 2990 ft 182 kts 214°
2026-05-04 20:49 40.77423 -73.65349 2952 ft 175 kts 214°
2026-05-04 20:49 40.76392 -73.66166 2764 ft 172 kts 214°
2026-05-04 20:49 40.75368 -73.66975 2510 ft 172 kts 213°
2026-05-04 20:49 40.74338 -73.67783 2265 ft 173 kts 213°
2026-05-04 20:50 40.73307 -73.68597 2030 ft 172 kts 213°
2026-05-04 20:50 40.72314 -73.69374 1805 ft 157 kts 212°
2026-05-04 20:50 40.71444 -73.70055 1634 ft 139 kts 213°
2026-05-04 20:50 40.70653 -73.70679 1432 ft 126 kts 213°
2026-05-04 20:51 40.69914 -73.71258 1284 ft 123 kts 212°
2026-05-04 20:51 40.69179 -73.71835 1099 ft 124 kts 212°
2026-05-04 20:51 40.68438 -73.72418 940 ft 124 kts 211°
2026-05-04 20:51 40.67694 -73.73004 774 ft 125 kts 211°
2026-05-04 20:52 40.66954 -73.73583 618 ft 123 kts 209°
2026-05-04 20:52 40.66219 -73.74154 458 ft 122 kts 204°
2026-05-04 20:52 40.65496 -73.74721 312 ft 124 kts 210°
2026-05-04 20:52 40.64779 -73.75280 122 ft 115 kts 212°
2026-05-04 20:53 40.64096 -73.75819 32 ft 110 kts 214°
2026-05-04 20:53 40.63559 -73.76242 27 ft 63 kts 211°
2026-05-04 20:53 40.63261 -73.76476 29 ft 46 kts 210°
2026-05-04 20:53 40.63036 -73.76678 28 ft 28 kts 226°
2026-05-04 20:54 40.62935 -73.76879 27 ft 23 kts 247°
2026-05-04 20:54 40.62951 -73.77021 27 ft 17 kts 301°
2026-05-04 20:54 40.63010 -73.77151 29 ft 16 kts 301°
2026-05-04 20:54 40.63066 -73.77272 31 ft 16 kts 301°
2026-05-04 20:55 40.63129 -73.77410 32 ft 20 kts 300°
2026-05-04 20:55 40.63201 -73.77572 33 ft 21 kts 300°
2026-05-04 20:55 40.63281 -73.77751 31 ft 23 kts 304°
2026-05-04 20:55 40.63356 -73.77913 28 ft 22 kts 298°
2026-05-04 20:56 40.63424 -73.78073 28 ft 16 kts 300°
2026-05-04 20:56 40.63482 -73.78204 29 ft 17 kts 301°
2026-05-04 20:56 40.63531 -73.78274 29 ft 8 kts 345°
2026-05-04 20:56 40.63600 -73.78258 27 ft 12 kts
2026-05-04 20:57 40.63684 -73.78276 27 ft 6 kts 350°
2026-05-04 20:57 40.63736 -73.78281 21 ft 9 kts 359°
2026-05-04 20:57 40.63813 -73.78286 27 ft 13 kts 355°
2026-05-04 20:57 40.63882 -73.78292 27 ft 10 kts
2026-05-04 20:58 40.63914 -73.78246 27 ft 5 kts 71°
2026-05-04 20:58 40.63920 -73.78217 27 ft 1 kts 74°
2026-05-04 20:58 40.63922 -73.78206 27 ft 0 kts 74°